Regional Weather Roundup
Issued by NWS

Home | Current Version | Previous Version | Graphics & Text | Print | Product List | Glossary Off
Versions: 1 2 3 4 5 6 7 8 9 10 11 12 13 14 15 16 17 18 19 20 21 22 23 24 25 26 27 28 29 30 31 32 33 34 35 36 37 38 39 40 41 42 43 44 45 46 47 48 49 50

000
ASUS43 KTOP 230608
RWRKS

WEATHER ROUNDUP FOR KANSAS
NATIONAL WEATHER SERVICE GOODLAND KS
100 AM CDT WED APR 23 2014

NOTE:  "FAIR" INDICATES FEW OR NO CLOUDS BELOW 12,000 FEET WITH NO
SIGNIFICANT WEATHER AND/OR OBSTRUCTIONS TO VISIBILITY.

KSZ001>006-013>018-027>032-041>047-230700-
NORTHWEST KANSAS

CITY           SKY/WX    TMP DP  RH WIND       PRES   REMARKS
GOODLAND       MOCLDY    57  48  72 S20       29.73F
6HR MIN TEMP:  57; 6HR MAX TEMP:  77;

HAYS           FAIR      59  36  41 SE20      29.85F
HILL CITY      FAIR      60  38  43 SE15G23   29.80F
6HR MIN TEMP:  59; 6HR MAX TEMP:  74; 6HR PCP:  0.02;

RUSSELL        CLOUDY    59  35  40 SE15      29.85F
6HR MIN TEMP:  59; 6HR MAX TEMP:  73; 6HR PCP: TRACE;

$$

KSZ061>065-074>080-084>089-230700-
SOUTHWEST KANSAS

CITY           SKY/WX    TMP DP  RH WIND       PRES   REMARKS
DODGE CITY     FAIR      62  34  35 S25G31    29.84S
6HR MIN TEMP:  61; 6HR MAX TEMP:  75;

ELKHART          N/A     65  39  38 S20         N/A
GARDEN CITY    FAIR      61  44  53 S18       29.80F
6HR MIN TEMP:  61; 6HR MAX TEMP:  77; 6HR PCP: TRACE;

GREAT BEND     FAIR      61  30  31 SE12      29.87F
LIBERAL        FAIR      64  46  52 E21G28    29.84S
PRATT          FAIR      59  30  33 SE13      29.89F
$$

KSZ066>073-081>083-090>101-230700-
SOUTHEAST KANSAS

CITY           SKY/WX    TMP DP  RH WIND       PRES   REMARKS
CHANUTE        FAIR      49  39  68 SE3       29.99S
6HR MIN TEMP:  48; 6HR MAX TEMP:  70;

COFFEYVILLE    FAIR      51  41  68 N3        29.99R
6HR MIN TEMP:  51; 6HR MAX TEMP:  72;

HUTCHINSON     FAIR      59  33  37 SE14      29.90F
6HR MIN TEMP:  59; 6HR MAX TEMP:  73;

MEDICINE LODGE   N/A     60  33  36 SE10      29.89F
NEWTON         FAIR      55  32  41 SE13      29.96S
PARSONS        MOCLDY    51  36  56 CALM      30.00R
6HR MIN TEMP:  50; 6HR MAX TEMP:  72;

WICHITA INTL   FAIR      59  35  40 SE13      29.92F
6HR MIN TEMP:  59; 6HR MAX TEMP:  72;

WICHITA JABRA  FAIR      57  35  43 SE10      29.93F
6HR MIN TEMP:  57; 6HR MAX TEMP:  71;

WICHITA MCCONL FAIR      58  34  39 E13       29.93F
WINFIELD       FAIR      57  37  47 E6        29.95F
6HR MIN TEMP:  57; 6HR MAX TEMP:  73;

$$

KSZ007>012-019>026-033>040-048>060-102>105-230700-
NORTHEAST KANSAS

CITY           SKY/WX    TMP DP  RH WIND       PRES   REMARKS
CONCORDIA      FAIR      60  33  36 SE20G25   29.90F
6HR MIN TEMP:  59; 6HR MAX TEMP:  72; 6HR PCP: TRACE;

EMPORIA        MOCLDY    54  36  50 SE12      29.96F
6HR MIN TEMP:  54; 6HR MAX TEMP:  69;

LAWRENCE       FAIR      51  38  60 SE5       29.99F
6HR MIN TEMP:  51; 6HR MAX TEMP:  70;

MANHATTAN      FAIR      53  36  52 CALM      29.94F
6HR MIN TEMP:  53; 6HR MAX TEMP:  71;

OLATHE IND     FAIR      54  35  48 E5        30.00F
6HR MIN TEMP:  54; 6HR MAX TEMP:  68;

OLATHE EXE     MOCLDY    54  35  48 E7        29.99S
6HR MIN TEMP:  54; 6HR MAX TEMP:  67;

SALINA         MOCLDY    61  33  35 SE10      29.93R
6HR MIN TEMP:  61; 6HR MAX TEMP:  74;

TOPEKA BILLARD FAIR      53  37  54 E5        29.98F
6HR MIN TEMP:  53; 6HR MAX TEMP:  71;

TOPEKA FORBES  FAIR      51  36  56 E8        29.98S
6HR MIN TEMP:  51; 6HR MAX TEMP:  69;

$$



USA.gov is the U.S. government's official web portal to all federal, state and local government web resources and services.